Flag Weather past 2 weeks in Binghamton, New York, U.S.A.

Now
41 °F

Mostly cloudy.


Feels Like: 35 °F
Forecast: 40 / 49 °F
Wind: 9 mph from Southwest

Location: Binghamton Regional Airport

Current Time: Nov 23, 2014 at 6:24:46 AM

Latest Report: Nov 23, 2014 at 5:53 AM


Visibility: 10 mi

Pressure: 30.10 "Hg

Humidity: 62%

Dew point: 29 °F

Location of BinghamtonLocation

Historic Weather in Binghamton — Graph

°F

Binghamton temperature yesterday

Maximum temperature yesterday: 38 °F (at 1:53 PM)
Minimum temperature yesterday: 16 °F (at 6:53 AM)
Average temperature yesterday: 29 °F

Past Weeks' High & Low Weather Summary

 TemperatureHumidityPressure
High61 °F (Nov 11, 2:53 PM)100% (Nov 17, 6:53 AM)30.45 "Hg (Nov 17, 6:53 AM)
Low11 °F (Nov 19, 4:53 AM)26% (Nov 22, 1:53 PM)29.49 "Hg (Nov 17, 2:53 PM)
Average33 °F67%30.02 "Hg
* Reported Nov 8 4:53 AM — Nov 23 4:53 AM, Binghamton, Weather by CustomWeather, © 2014

Note: Actual official high and low records may vary slightly from our data, if they occured in-between our weather recording intervals... More about our weather records

Advertising

Binghamton weather history for previous 24 hours

 ConditionsComfort  
Time TempWeatherWind HumidityBarometerVisibility
4:53 AM
Nov 23
41 °FLight rain. Mostly cloudy.8 mph65%30.09 "Hg10 mi
3:53 AM40 °FLight rain. Overcast.7 mph68%30.09 "Hg10 mi
2:53 AM38 °FMostly cloudy.10 mph73%30.10 "Hg10 mi
1:53 AM38 °FOvercast.13 mph70%30.10 "Hg10 mi
12:53 AM37 °FOvercast.10 mph79%30.10 "Hg10 mi
11:53 PM
Nov 22
38 °FLight rain. Overcast.13 mph79%30.10 "Hg10 mi
10:53 PM38 °FLight rain. Mostly cloudy.14 mph76%30.09 "Hg10 mi
9:53 PM36 °FLight rain. Mostly cloudy.9 mph82%30.10 "Hg4 mi
8:53 PM36 °FLight rain. Mostly cloudy.15 mph82%30.12 "Hg6 mi
7:53 PM37 °FMostly cloudy.16 mph70%30.12 "Hg10 mi
6:53 PM36 °FLight rain. Overcast.16 mph73%30.14 "Hg10 mi
5:53 PM36 °FOvercast.14 mph70%30.14 "Hg10 mi
4:53 PM36 °FOvercast.15 mph70%30.14 "Hg10 mi
3:53 PM37 °FOvercast.15 mph57%30.14 "Hg10 mi
2:53 PM38 °FMostly cloudy.15 mph31%30.14 "Hg10 mi
1:53 PM38 °FMostly cloudy.15 mph26%30.16 "Hg10 mi
12:53 PM37 °FCloudy.9 mph28%30.19 "Hg10 mi
11:53 AM35 °FPassing clouds.13 mph34%30.23 "Hg10 mi
10:53 AM31 °FPartly sunny.14 mph40%30.28 "Hg10 mi
9:53 AM27 °FSunny.14 mph49%30.31 "Hg10 mi
8:53 AM22 °FSunny.7 mph60%30.34 "Hg10 mi
7:53 AM18 °FPassing clouds.9 mph68%30.36 "Hg10 mi
6:53 AM16 °FClear.7 mph71%30.37 "Hg10 mi
Weather by CustomWeather, © 2014

See weather overviewHow to use our weather pages